Weather in Bolshoye Frolovo

Russia / Republic of Tatarstan     55°03′05″N   48°24′39″E
temp.,
°C
wind,
m/s
gust,
m/s
humid.,
%
clouds,
%
prec.,
mm/h
press.,
hPa
HPBL,
m
14 april, wed
wed1400:00+9s336812 0.0 103118
03:00+8sse33725 0.0 103116
06:00+8sse33775 0.0 103032
09:00+14sse46605 0.0 1029316
12:00+17sse575632 0.0 1028742
15:00+18sse56575 0.0 1026950
18:00+16sse37685 0.0 1024145
21:00+12se33805 0.0 102435
15 april, thu
thu1500:00+10sse33851 0.0 102323
03:00+9sse22885 0.0 102221
06:00+9sse22890 0.0 102237
09:00+14sse34660 0.0 1021375
12:00+17s34500 0.0 10201075
15:00+18ssw33430 0.0 10191411
18:00+15sw11540 0.0 101911
21:00+13nne00610 0.0 101910
16 april, fri
fri1600:00+11nne22670 0.0 101910
03:00+9n33821 0.0 101929
06:00+7nne499525 0.0 1021236
09:00+9ne6984100 0.0 1022530
12:00+13ene786316 0.0 1022870
15:00+13ene786028 0.0 10231026
18:00+11ene710675 0.0 1024656
21:00+8ne512715 0.0 1025435
17 april, sat
sat1700:00+6ne612764 0.0 1025401
03:00+4ne512735 0.0 1026321
06:00+4ne512665 0.0 1027378
09:00+8ene79470 0.0 1028709
12:00+11ene78340 0.0 10271116
15:00+12ene67350 0.0 10271323
18:00+10ne47450 0.0 1027266
21:00+6ne38600 0.0 1027160
18 april, sun
sun1800:00+5nne36660 0.0 102790
03:00+4nne34710 0.0 102856
06:00+4nne37751 0.0 1028178
09:00+9ne56514 0.0 1028863
12:00+12ne56435 0.0 10271555
15:00+13ne574188 0.0 10271967
18:00+11ne695158 0.0 1027703
21:00+6ene6116621 0.0 1030617